Pittsburg, KS

1:39 PM CST on January 18, 2017 (GMT -0600)
Atkinson Municipal

Weather History for KPTS - October, 2012

Change the Weather History Date:

Monday, October 1, 2012

  Actual Average (KJLN) Record (KJLN)
Temperature  
Mean Temperature 67 °F -  
Max Temperature 76 °F 78 °F 94 °F (1953)
Min Temperature 58 °F 52 °F 32 °F (1985)
Cooling Degree Days 2    
Growing Degree Days 17 (Base 50)    
Moisture  
Dew Point 56 °F    
Average Humidity 71    
Maximum Humidity 100    
Minimum Humidity 42    
Precipitation  
Precipitation 0.00 in - - ()
Sea Level Pressure  
Sea Level Pressure 29.83 in    
Wind  
Wind Speed 3 mph (North)    
Max Wind Speed 13 mph    
Max Gust Speed 18 mph    
Visibility 10 miles    
Events      
Averages and records for this station are not official NWS values.
T = Trace of Precipitation, MM = Missing Value Source: NWS Daily Summary

Daily Weather History Graph

Daily Weather History Graph

Search for Another Location

Airport or City:

Trip Planner

Search our weather history database for the weather conditions in past years. The results will help you decide how hot, cold, wet, or windy it might be!

Date:

Astronomy

Oct. 01, 2012 Rise Set
Actual Time 7:14 AM CDT 7:01 PM CDT
Civil Twilight 6:48 AM CDT 7:27 PM CDT
Nautical Twilight 6:18 AM CDT 7:57 PM CDT
Astronomical Twilight 5:48 AM CDT 8:28 PM CDT
Moon 7:42 PM CDT (10/1) 8:42 AM CDT (10/1)
Length of Visible Light 12h 38m
Length of Day
11h 46m
Full, 98% of the Moon is Illuminated
Oct 1
Full
Oct 8
Last Quarter
Oct 15
New
Oct 21
First Quarter
Oct 29
Full

Hourly Weather History & Observations

Time (CDT) Temp. Dew Point Humidity Pressure Visibility Wind Dir Wind Speed Gust Speed Precip Events Conditions
12:15 AM 62.8 °F 57.6 °F 83% 29.87 in 10.0 mi Calm Calm - N/A   Clear
12:35 AM 61.7 °F 59.2 °F 91% 29.86 in 10.0 mi Calm Calm - N/A   Clear
12:55 AM 61.3 °F 60.8 °F 98% 29.85 in 10.0 mi Calm Calm - N/A   Clear
1:15 AM 61.3 °F 61.0 °F 99% 29.85 in 10.0 mi Calm Calm - N/A   Clear
1:35 AM 61.3 °F 60.3 °F 96% 29.85 in 10.0 mi Calm Calm - N/A   Clear
1:55 AM 61.5 °F 58.5 °F 90% 29.85 in 10.0 mi North 4.6 mph - N/A   Clear
2:15 AM 62.4 °F 56.5 °F 81% 29.84 in 10.0 mi North 3.5 mph - N/A   Clear
2:35 AM 62.8 °F 55.9 °F 78% 29.84 in 10.0 mi Calm Calm - N/A   Clear
2:55 AM 61.9 °F 57.9 °F 87% 29.84 in 10.0 mi Calm Calm - N/A   Clear
3:15 AM 61.3 °F 61.5 °F 100% 29.83 in 10.0 mi Calm Calm - N/A   Clear
3:35 AM 61.3 °F 61.3 °F 100% 29.83 in 10.0 mi Calm Calm - N/A   Clear
3:55 AM 61.3 °F 61.0 °F 99% 29.82 in 10.0 mi Calm Calm - N/A   Clear
4:15 AM 61.0 °F 60.8 °F 99% 29.82 in 10.0 mi Calm Calm - N/A   Clear
4:35 AM 60.6 °F 58.8 °F 94% 29.82 in 10.0 mi Calm Calm - N/A   Clear
4:55 AM 61.3 °F 56.8 °F 85% 29.82 in 10.0 mi Calm Calm - N/A   Clear
5:15 AM 61.3 °F 55.9 °F 82% 29.82 in 10.0 mi North 3.5 mph - N/A   Clear
5:35 AM 61.3 °F 55.8 °F 82% 29.82 in 10.0 mi North 3.5 mph - N/A   Clear
5:55 AM 61.3 °F 55.6 °F 81% 29.82 in 10.0 mi North 3.5 mph - N/A   Clear
6:15 AM 61.3 °F 55.4 °F 81% 29.82 in 10.0 mi North 3.5 mph - N/A   Clear
6:35 AM 61.3 °F 54.1 °F 77% 29.83 in 10.0 mi Calm Calm - N/A   Clear
6:55 AM 60.4 °F 55.4 °F 83% 29.84 in 10.0 mi Calm Calm - N/A   Clear
7:15 AM 59.0 °F 57.6 °F 95% 29.84 in 10.0 mi Calm Calm - N/A   Clear
7:35 AM 59.0 °F 59.0 °F 100% 29.84 in 10.0 mi Calm Calm - N/A   Clear
7:55 AM 58.8 °F 58.8 °F 100% 29.83 in 10.0 mi Calm Calm - N/A   Clear
8:15 AM 59.0 °F 59.0 °F 100% 29.83 in 10.0 mi NNW 3.5 mph - N/A   Clear
8:35 AM 60.4 °F 58.1 °F 92% 29.83 in 10.0 mi North 3.5 mph - N/A   Clear
8:55 AM 61.3 °F 55.4 °F 81% 29.83 in 10.0 mi North 4.6 mph - N/A   Clear
9:15 AM 61.3 °F 53.8 °F 76% 29.83 in 10.0 mi North 3.5 mph - N/A   Clear
9:35 AM 62.1 °F 53.6 °F 74% 29.84 in 10.0 mi North 5.8 mph - N/A   Clear
9:55 AM 62.8 °F 53.6 °F 72% 29.84 in 10.0 mi North 4.6 mph - N/A   Clear
10:15 AM 62.8 °F 53.1 °F 71% 29.84 in 10.0 mi Calm Calm - N/A   Clear
10:35 AM 63.5 °F 53.6 °F 70% 29.84 in 10.0 mi Calm Calm - N/A   Clear
10:55 AM 67.3 °F 55.6 °F 66% 29.84 in 10.0 mi North 6.9 mph - N/A   Clear
11:15 AM 71.1 °F 57.2 °F 61% 29.84 in 10.0 mi North 5.8 mph - N/A   Clear
11:35 AM 72.1 °F 56.1 °F 57% 29.84 in 10.0 mi North 6.9 mph 16.1 mph N/A   Clear
11:55 AM 71.8 °F 55.2 °F 56% 29.84 in 10.0 mi North 6.9 mph - N/A   Clear
12:15 PM 71.6 °F 55.2 °F 56% 29.84 in 10.0 mi North 9.2 mph - N/A   Clear
12:35 PM 71.6 °F 55.0 °F 56% 29.84 in 10.0 mi North 6.9 mph - N/A   Clear
12:55 PM 71.6 °F 53.2 °F 52% 29.83 in 10.0 mi NNE 10.4 mph - N/A   Clear
1:15 PM 72.9 °F 53.6 °F 51% 29.83 in 10.0 mi North 6.9 mph - N/A   Clear
1:35 PM 74.3 °F 54.1 °F 49% 29.82 in 10.0 mi North 6.9 mph - N/A   Clear
1:55 PM 76.1 °F 54.3 °F 47% 29.81 in 10.0 mi North 10.4 mph - N/A   Clear
2:15 PM 76.6 °F 53.1 °F 44% 29.80 in 10.0 mi NNE 12.7 mph 18.4 mph N/A   Clear
2:35 PM 76.6 °F 52.0 °F 42% 29.80 in 10.0 mi NE 8.1 mph 18.4 mph N/A   Clear
2:55 PM 76.6 °F 51.8 °F 42% 29.79 in 10.0 mi NE 6.9 mph - N/A   Clear
3:15 PM 76.6 °F 52.7 °F 43% 29.79 in 10.0 mi NE 8.1 mph - N/A   Clear
3:35 PM 76.6 °F 53.1 °F 44% 29.79 in 10.0 mi North 8.1 mph - N/A   Clear
4:15 PM 76.6 °F 54.9 °F 47% 29.79 in 10.0 mi NE 8.1 mph - N/A   Clear
4:35 PM 76.6 °F 55.2 °F 47% 29.80 in 10.0 mi NE 8.1 mph - N/A   Clear
4:55 PM 76.3 °F 55.2 °F 48% 29.80 in 10.0 mi NNE 4.6 mph - N/A   Clear
5:15 PM 74.5 °F 54.0 °F 49% 29.80 in 10.0 mi North 5.8 mph - N/A   Clear
5:35 PM 73.8 °F 51.4 °F 45% 29.80 in 10.0 mi North 3.5 mph - N/A   Clear
5:55 PM 72.0 °F 52.9 °F 51% 29.81 in 10.0 mi North 3.5 mph - N/A   Clear
6:15 PM 71.6 °F 54.3 °F 54% 29.81 in 10.0 mi North 4.6 mph - N/A   Clear
6:35 PM 71.6 °F 55.9 °F 58% 29.81 in 10.0 mi North 3.5 mph - N/A   Clear
6:55 PM 71.6 °F 57.0 °F 60% 29.82 in 10.0 mi North 3.5 mph - N/A   Clear
7:15 PM 71.1 °F 57.4 °F 62% 29.82 in 10.0 mi Calm Calm - N/A   Clear
7:35 PM 68.7 °F 57.2 °F 67% 29.82 in 10.0 mi NE 3.5 mph - N/A   Clear
7:55 PM 67.8 °F 56.5 °F 67% 29.82 in 10.0 mi NNE 4.6 mph - N/A   Clear
8:15 PM 69.1 °F 53.2 °F 57% 29.83 in 10.0 mi Calm Calm - N/A   Clear
8:35 PM 68.0 °F 52.5 °F 58% 29.84 in 10.0 mi NNW 3.5 mph - N/A   Clear
8:55 PM 65.7 °F 53.1 °F 64% 29.84 in 10.0 mi Calm Calm - N/A   Clear
9:15 PM 63.0 °F 54.0 °F 72% 29.85 in 10.0 mi Calm Calm - N/A   Clear
9:35 PM 61.3 °F 55.0 °F 80% 29.85 in 10.0 mi NW 3.5 mph - N/A   Clear
9:55 PM 61.7 °F 54.7 °F 78% 29.86 in 10.0 mi North 3.5 mph - N/A   Clear
10:15 PM 62.8 °F 53.2 °F 71% 29.86 in 10.0 mi NNW 5.8 mph - N/A   Scattered Clouds
10:35 PM 62.6 °F 53.4 °F 72% 29.87 in 10.0 mi NNW 3.5 mph - N/A   Scattered Clouds
10:55 PM 62.4 °F 53.2 °F 72% 29.87 in 10.0 mi NNW 4.6 mph - N/A   Clear
11:15 PM 61.7 °F 54.0 °F 76% 29.87 in 10.0 mi North 3.5 mph - N/A   Clear
11:35 PM 61.3 °F 54.5 °F 78% 29.87 in 10.0 mi North 4.6 mph - N/A   Clear
11:55 PM 61.3 °F 54.9 °F 79% 29.87 in 10.0 mi North 5.8 mph - N/A   Clear